Погода в Ибе

Филиппины     15°19′23″N   119°59′08″E
темп.,
°C
ветер,
м/с
пор.,
м/с
влажн.,
%
обл.,
%
осадки,
мм/ч
давл.,
гПа
погр.,
м
10 апреля, сб
сб1023:00+27в12726 0.4 1012137
02:00+26в337553 0.4 1011191
05:00+25в3477100 0.0 1011157
08:00+27в2366100 0.0 1013459
11:00+31зюз135056 0.0 10121031
14:00+30сз656296 0.1 1011713
17:00+29сз446818 0.7 1011772
20:00+29зсз226981 4.4 101371
11 апреля, вс
вс1123:00+27вюв23695 0.1 1014136
02:00+25в34755 0.1 1012149
05:00+25в337895 0.0 1013138
08:00+27в226463 0.0 1014424
11:00+30з335315 0.0 10141132
14:00+30зсз646342 0.1 1011830
17:00+29сз446912 0.0 1011730
20:00+27с347644 0.8 1013212
12 апреля, пн
пн1223:00+27в237199 0.5 1014127
02:00+26в237461 0.5 1012128
05:00+25в337686 0.0 1012134
08:00+27в236425 0.0 1014452
11:00+30з4353100 0.0 1013859
14:00+30зсз646098 0.0 1010717
17:00+29сз456789 0.0 1010764
20:00+27с357617 0.1 1012322
13 апреля, вт
вт1323:00+27св227372 0.3 1013132
02:00+26в227233 0.4 1011123
05:00+26всв117498 0.0 101191
08:00+28всв006695 0.0 1013397
11:00+29з426440 0.1 1012834
14:00+30зсз556351 0.4 1009826
17:00+28сз667175 0.2 1009730
20:00+27ссз457773 0.8 1011339
14 апреля, ср
ср1423:00+27ссв227582 1.0 1012156
02:00+27вюв0173100 1.1 1010124
05:00+27вюв017297 0.1 1010164
08:00+28ю126720 0.1 1011636
11:00+29з426616 1.0 1011791
14:00+29з436734 2.3 1009808
17:00+28зсз3371100 0.3 1008589
20:00+26ссз338199 3.8 1010118